Location: Csohesd
(46.2500°N, 22.6167°E)
Time: 20:16:28
(UTC+00:00)

SL-19 R/B - Pass Details

Date: 06 June 2022
Orbit: 874 x 1208 km, 100.6° (Epoch: 02 July)

Event Time Altitude Azimuth Distance (km) Brightness Sun altitude
Rises 18:55:43 0° 11° (N) 4,067 8.2 -6.0°
Reaches altitude 10° 18:58:29 10° 4° (N) 3,128 7.7 -6.3°
Maximum altitude 19:04:58 38° 300° (WNW) 1,770 6.7 -7.1°
Drops below altitude 10° 19:11:29 10° 236° (WSW) 3,139 7.3 -7.9°
Sets 19:14:16 0° 229° (SW) 4,084 7.8 -8.3°
